Location: Moscow
(55.7500°N, 37.5830°E)
Time: 00:38:16
(UTC+03:00)

Vanguard 3 - Pass Details

Date: 02 December 2021
Orbit: 508 x 3260 km, 33.3° (Epoch: 17 January)

Event Time Altitude Azimuth Distance (km) Brightness Sun altitude
Rises 10:00:46 0° 264° (W) 6,590 11.5 6.9°
Reaches altitude 10° 10:08:32 10° 245° (WSW) 4,973 11.1 7.5°
Maximum altitude 10:14:13 14° 220° (SW) 4,113 11.1 7.9°
Drops below altitude 10° 10:18:54 10° 193° (SSW) 3,915 11.5 8.2°
Sets 10:23:35 0° 169° (S) 4,343 12.6 8.5°
